Weather Roundup
Issued by NWS

Home | Current Version | Previous Version | Text Only | Print | Product List | Glossary On
Versions: 1 2 3 4 5 6 7 8 9 10 11 12 13 14 15 16 17 18 19 20 21 22 23 24 25 26 27 28 29 30 31 32 33 34 35 36 37 38 39 40 41 42 43 44 45 46 47 48 49 50
368
NZUS93 KARX 031110
HRRWXR

CURRENT HOURLY OBSERVATIONS ACROSS
MUCH OF THE UPPER MISSISSIPPI VALLEY
NATIONAL WEATHER SERVICE LA CROSSE WI
500 AM CST SAT DEC 03 2016


...SOUTHEAST MINNESOTA...


CITY           SKY/WX    TMP DP  RH WIND       PRES   REMARKS
ROCHESTER      CLOUDY    28  22  78 CALM      30.30S
ROCHESTER/MAYO CLOUDY    29  23  77 W5        30.31S WCI  24
WINONA         CLOUDY    32  23  69 SW3       30.34S
AUSTIN         CLOUDY    28  21  74 SW5       30.30S WCI  23
ALBERT LEA     CLOUDY    32  25  74 W5        30.30F WCI  27
DODGE CENTER   MIX PCPN  27  23  86 CALM      30.30S
PRESTON        CLOUDY    28  23  80 CALM      30.31S
OWATONNA       MIX PCPN  28  21  74 CALM      30.30F
FARIBAULT      CLOUDY    28  23  80 CALM      30.31F
$$

...ELSEWHERE IN MINNESOTA...


CITY           SKY/WX    TMP DP  RH WIND       PRES   REMARKS
MINNEAPOLIS    CLOUDY    29  21  72 W7        30.31  WCI  22
INTNL FALLS    CLOUDY    24  20  84 SW7       30.22F WCI  16
DULUTH         CLOUDY    27  24  89 W5        30.22F WCI  22
RED WING       CLOUDY    30  21  69 W6        30.31S WCI  24
REDWOOD FALLS  CLOUDY    28  19  69 W3        30.31
MANKATO        CLOUDY    28  23  81 W5        30.32S WCI  23
WORTHINGTON    CLOUDY    27  23  85 CALM      30.29F
FAIRMONT       CLOUDY    28  20  71 NW8       30.32S WCI  20
$$

...SOUTHWEST WISCONSIN...


CITY           SKY/WX    TMP DP  RH WIND       PRES   REMARKS
LA CROSSE      CLOUDY    32  22  66 W7        30.34  WCI  26
PRAIRIE DU CHI CLOUDY    31  22  69 W9        30.36R WCI  23
BOSCOBEL       CLOUDY    32  22  66 W5        30.36R WCI  27
LONE ROCK      CLOUDY    31  21  66 W9        30.35R WCI  23
PLATTEVILLE    CLOUDY    30  25  81 W9        30.34R WCI  22
FORT MC COY    NOT AVBL
CAMP DOUGLAS   CLOUDY    31  22  69 SW5       30.31R WCI  26
MAUSTON-NEW LI NOT AVBL
VIROQUA        CLOUDY    28  23  82 W6        30.31R WCI  21
WIS DELLS      CLOUDY    30  22  70 W5        30.31R WCI  25
$$

...ELSEWHERE IN WISCONSIN...


CITY           SKY/WX    TMP DP  RH WIND       PRES   REMARKS
MILWAUKEE      CLOUDY    33  22  63 W7        30.32R WCI  27
MADISON        CLOUDY    30  22  72 NW6       30.32S WCI  24
GREEN BAY      CLOUDY    34  28  79 W6        30.28  WCI  29
EAU CLAIRE     CLOUDY    30  25  81 SW8       30.29R WCI  22
BLACK RVR FLS  CLOUDY    31  22  71 SW3       30.31R
MEDFORD        CLOUDY    27  23  83 NW3       30.25R
WAUSAU         CLOUDY    28  22  78 W7        30.27R WCI  21
WIS RAPIDS     CLOUDY    30  23  75 W5        30.30R WCI  25
MARSHFIELD     CLOUDY    29  22  75 W5        30.26R WCI  24
RICE LAKE      CLOUDY    29  25  84 CALM      30.29S
$$

...NORTHEAST IOWA...


CITY           SKY/WX    TMP DP  RH WIND       PRES   REMARKS
WATERLOO       CLOUDY    31  25  78 S6        30.34  WCI  25
DUBUQUE        CLOUDY    29  23  78 NW9       30.34S WCI  20
DECORAH        CLOUDY    30  23  74 CALM      30.32S
MASON CITY     CLOUDY    31  26  82 SW5       30.33S WCI  26
CHARLES CITY   CLOUDY    30  27  86 S10       30.32F WCI  21
OELWEIN        CLOUDY    30  25  80 CALM      30.34F
$$

...ELSEWHERE IN IOWA...


CITY           SKY/WX    TMP DP  RH WIND       PRES   REMARKS
DES MOINES     CLOUDY    36  29  75 W6        30.35S WCI  31
IOWA CITY      CLOUDY    34  26  72 W3        30.39F
FORT DODGE     CLOUDY    34  27  75 CALM      30.33F
MARSHALLTOWN   CLOUDY    32  28  85 S3        30.33F
CEDAR RAPIDS   CLOUDY    31  28  89 CALM      30.36S
$$

...NORTHERN ILLINOIS...


CITY           SKY/WX    TMP DP  RH WIND       PRES   REMARKS
CHICAGO-OHARE  CLOUDY    32  23  69 W9        30.34R WCI  24
CHICAGO-MIDWAY CLOUDY    34  21  59 W10       30.35R WCI  26
MOLINE         CLOUDY    35  24  64 NW9       30.37S WCI  28
ROCKFORD       CLOUDY    32  22  66 W12       30.37  WCI  23
PEORIA         CLOUDY    34  27  75 NW3       30.37
$$

NOTE: "FAIR" INDICATES FEW OR NO CLOUDS BELOW 12,000 FEET WITH NO
SIGNIFICANT WEATHER AND/OR OBSTRUCTIONS TO VISIBILITY. WIND
SPEEDS ARE IN MILES-PER-HOUR.




USA.gov is the U.S. government's official web portal to all federal, state and local government web resources and services.